Location: Oso Ridge
(35.0450°N, 108.0864°W)
Time: 09:26:51
(UTC-06:00)

Amateur Radio Satellites - All Passes

Search period start: 17 April 2014 08:56
Search period end: 18 April 2014 08:56
Location: Oso Ridge, 35.0450°N, 108.0864°W

Satellite Date Start Highest point End Downlink Frequencies (MHz)
Time Altitude Azimuth
PANSAT 17 Apr 09:01:12 09:02:22 11° 158° (SSE) 09:03:33 not established
HO-68 17 Apr 09:16:20 09:21:40 22° 95° (E) 09:26:57 435.675 MHz FM
MaSat-1 17 Apr 09:17:40 09:19:42 16° 251° (WSW) 09:21:57 437.345 MHz
PCSat 17 Apr 09:27:50 09:29:42 12° 46° (NE) 09:31:35 145.825 MHz
RS-15 17 Apr 09:39:51 09:49:42 34° 315° (NW) 09:59:22 29.354 - 29.394 USB, Beacon 29.352 USB
JAS-2 17 Apr 10:09:35 10:11:10 11° 297° (WNW) 10:12:48 435.800 - 435.900 CW/SSB, 435.910 FM
Oscar 11 17 Apr 10:16:44 10:20:19 25° 96° (E) 10:23:53 145.825 FM, Beacon 2401.500 USB
Sapphire 17 Apr 10:23:47 10:28:35 31° 56° (NE) 10:33:21 437.095 MHz 1200 baud AX-25 AFSK
PANSAT 17 Apr 10:38:49 10:42:01 25° 170° (S) 10:45:13 not established
HO-68 17 Apr 11:02:40 11:09:42 60° 290° (WNW) 11:16:43 435.675 MHz FM
PCSat 17 Apr 11:08:30 11:13:56 83° 64° (ENE) 11:19:21 145.825 MHz
KITSAT 1 17 Apr 11:18:27 11:23:37 18° 41° (NE) 11:28:45 435.175 FM
FUNcube-1 17 Apr 11:35:12 11:39:24 61° 101° (E) 11:43:42 145.950 - 145.970 MHz USB
Saudisat 1A 17 Apr 11:43:04 11:47:27 58° 116° (ESE) 11:51:50 436.775 MHz
Oscar 11 17 Apr 11:52:53 11:56:23 24° 290° (WNW) 11:59:53 145.825 FM, Beacon 2401.500 USB
RS-15 17 Apr 12:03:13 12:07:04 12° 348° (NNW) 12:10:54 29.354 - 29.394 USB, Beacon 29.352 USB
Sapphire 17 Apr 12:07:13 12:11:54 31° 252° (WSW) 12:16:35 437.095 MHz 1200 baud AX-25 AFSK
PANSAT 17 Apr 12:18:26 12:21:51 30° 183° (S) 12:25:15 not established
ITAMSAT 1 17 Apr 13:09:21 13:11:02 12° 62° (ENE) 13:12:42 435.822 SSB
KITSAT 1 17 Apr 13:12:13 13:20:22 78° 62° (ENE) 13:28:25 435.175 FM
Oscar 19 17 Apr 13:16:22 13:20:37 27° 68° (ENE) 13:24:53 437.125 CW, 437.150 USB
Oscar 16 17 Apr 13:23:50 13:28:25 34° 70° (ENE) 13:33:02 437.025 USB, Beacon 2401.1428
Saudisat 1A 17 Apr 13:24:53 13:27:24 15° 313° (NW) 13:29:56 436.775 MHz
AO-Echo 17 Apr 13:37:06 13:40:34 18° 66° (ENE) 13:43:59 ?
Uribyol 2 17 Apr 13:54:54 13:59:34 36° 70° (ENE) 14:04:14 436.500 FM
PANSAT 17 Apr 13:58:49 14:01:36 19° 195° (SSW) 14:04:23 not established
Gurwin Techsat 1B 17 Apr 14:15:38 14:18:48 16° 64° (ENE) 14:21:57 435.225 FM
RS-15 17 Apr 14:19:38 14:26:20 17° 27° (NNE) 14:33:03 29.354 - 29.394 USB, Beacon 29.352 USB
AO-27 17 Apr 14:33:19 14:38:31 85° 76° (ENE) 14:43:44 436.795 MHz FM
JAS-1B 17 Apr 14:35:20 14:39:13 15° 62° (ENE) 14:42:50 435.800 - 435.900 CW/SSB
OPAL 17 Apr 14:41:16 14:43:21 12° 94° (E) 14:45:24 ?
ITAMSAT 1 17 Apr 14:44:39 14:49:50 77° 257° (WSW) 14:55:02 435.822 SSB
Oscar 19 17 Apr 14:55:20 14:59:48 30° 263° (W) 15:04:20 437.125 CW, 437.150 USB
AO-7 17 Apr 15:02:08 15:06:54 17° 54° (NE) 15:11:40 29.400 - 29.500 MHz
TMSAT-1 17 Apr 15:03:28 15:08:09 33° 70° (ENE) 15:12:49 436.925 FM
Oscar 16 17 Apr 15:03:44 15:07:47 24° 265° (W) 15:11:52 437.025 USB, Beacon 2401.1428
Oscar 10/S400 17 Apr 15:08:17 16:12:05 16° 275° (W) 17:52:07 145.825 - 145.975 CW/USB, Beacon 145.810 USB
KITSAT 1 17 Apr 15:09:41 15:14:48 19° 258° (WSW) 15:19:54 435.175 FM
AO-Echo 17 Apr 15:13:49 15:18:55 49° 260° (W) 15:23:58 ?
ISS 17 Apr 15:19:43 15:22:19 21° 129° (SE) 15:24:56 145.800 FM
Uosat F 17 Apr 15:31:48 15:35:35 22° 67° (ENE) 15:39:23 435.120 FM
SO-50 17 Apr 15:33:31 15:37:06 24° 111° (ESE) 15:40:42 436.795 FM
Uribyol 2 17 Apr 15:35:03 15:39:04 23° 265° (W) 15:43:06 436.500 FM
Gurwin Techsat 1B 17 Apr 15:53:03 15:58:15 56° 259° (W) 16:03:29 435.225 FM
OPAL 17 Apr 16:17:25 16:22:36 67° 288° (WNW) 16:27:46 ?
JAS-1B 17 Apr 16:20:30 16:29:09 86° 75° (ENE) 16:36:20 435.800 - 435.900 CW/SSB
RS-15 17 Apr 16:30:55 16:41:42 58° 55° (NE) 16:52:45 29.354 - 29.394 USB, Beacon 29.352 USB
TMSAT-1 17 Apr 16:43:40 16:48:02 26° 264° (W) 16:52:25 436.925 FM
AO-7 17 Apr 16:50:12 16:58:29 85° 72° (ENE) 17:06:48 29.400 - 29.500 MHz
ISS 17 Apr 16:55:55 16:58:56 31° 324° (NW) 17:01:58 145.800 FM
Uosat F 17 Apr 17:09:30 17:14:07 37° 261° (W) 17:18:45 435.120 FM
SO-50 17 Apr 17:13:34 17:17:30 30° 306° (NW) 17:21:28 436.795 FM
Hamsat 17 Apr 18:03:42 18:07:11 26° 71° (ENE) 18:10:43 145.90 MHz
UOSAT-12 17 Apr 18:07:22 18:11:43 50° 115° (ESE) 18:16:11 437.025 FM, 437.400 FM
JAS-1B 17 Apr 18:15:28 18:19:58 15° 266° (W) 18:24:09 435.800 - 435.900 CW/SSB
JAS-2 17 Apr 18:31:44 18:36:11 22° 68° (ENE) 18:40:21 435.800 - 435.900 CW/SSB, 435.910 FM
RS-15 17 Apr 18:43:58 18:53:28 36° 254° (WSW) 19:03:16 29.354 - 29.394 USB, Beacon 29.352 USB
AO-7 17 Apr 18:47:18 18:52:03 16° 267° (W) 18:56:49 29.400 - 29.500 MHz
STRAND 1 17 Apr 18:53:14 18:56:45 19° 94° (E) 19:00:14 ?
SO-67 17 Apr 19:14:47 19:17:45 27° 73° (ENE) 19:20:45 435.3500 MHz FM
Hamsat 17 Apr 19:40:00 19:43:08 20° 265° (W) 19:46:18 145.90 MHz
HO-68 17 Apr 19:45:03 19:47:34 12° 55° (NE) 19:50:05 435.675 MHz FM
UOSAT-12 17 Apr 19:49:07 19:52:10 17° 312° (NW) 19:55:15 437.025 FM, 437.400 FM
Saudisat 1A 17 Apr 20:13:47 20:17:02 20° 50° (NE) 20:20:15 436.775 MHz
JAS-2 17 Apr 20:15:16 20:21:04 43° 260° (W) 20:26:19 435.800 - 435.900 CW/SSB, 435.910 FM
STRAND 1 17 Apr 20:31:17 20:36:04 42° 288° (WNW) 20:40:51 ?
SO-67 17 Apr 20:49:15 20:50:56 13° 267° (W) 20:52:37 435.3500 MHz FM
Oscar 11 17 Apr 21:10:15 21:12:25 14° 67° (ENE) 21:14:34 145.825 FM, Beacon 2401.500 USB
HO-68 17 Apr 21:26:57 21:34:03 75° 72° (ENE) 21:41:12 435.675 MHz FM
MaSat-1 17 Apr 21:39:47 21:42:19 21° 110° (ESE) 21:44:34 437.345 MHz
ISS 17 Apr 21:51:59 21:53:05 11° 24° (NNE) 21:54:12 145.800 FM
Saudisat 1A 17 Apr 21:52:41 21:56:45 37° 246° (WSW) 22:00:46 436.775 MHz
FUNcube-1 17 Apr 22:29:06 22:32:52 32° 72° (ENE) 22:36:36 145.950 - 145.970 MHz USB
Oscar 11 17 Apr 22:44:05 22:48:11 44° 261° (W) 22:52:19 145.825 FM, Beacon 2401.500 USB
HO-68 17 Apr 23:18:05 23:22:19 17° 267° (W) 23:26:34 435.675 MHz FM
MaSat-1 17 Apr 23:20:17 23:20:40 10° 299° (WNW) 23:21:03 437.345 MHz
ISS 17 Apr 23:27:01 23:30:22 70° 41° (NE) 23:33:42 145.800 FM
PCSat 18 Apr 00:05:59 00:09:20 17° 104° (ESE) 00:12:42 145.825 MHz
FUNcube-1 18 Apr 00:06:36 00:09:20 17° 266° (W) 00:12:04 145.950 - 145.970 MHz USB
SO-50 18 Apr 00:09:16 00:11:01 12° 45° (NE) 00:12:45 436.795 FM
Sapphire 18 Apr 01:01:55 01:07:10 55° 112° (ESE) 01:12:27 437.095 MHz 1200 baud AX-25 AFSK
Oscar 10/S400 18 Apr 01:05:30 01:16:46 16° 136° (SE) 01:31:04 145.825 - 145.975 CW/USB, Beacon 145.810 USB
Oscar 19 18 Apr 01:33:02 01:34:55 12° 91° (E) 01:36:48 437.125 CW, 437.150 USB
Oscar 16 18 Apr 01:39:54 01:43:01 16° 93° (E) 01:46:07 437.025 USB, Beacon 2401.1428
KITSAT 1 18 Apr 01:46:24 01:50:02 14° 100° (E) 01:53:41 435.175 FM
PCSat 18 Apr 01:46:58 01:52:14 54° 299° (WNW) 01:57:33 145.825 MHz
SO-50 18 Apr 01:47:28 01:52:09 83° 242° (WSW) 01:56:53 436.795 FM
OPAL 18 Apr 01:52:52 01:55:53 16° 62° (ENE) 01:58:56 ?
Uribyol 2 18 Apr 02:11:57 02:15:10 17° 93° (E) 02:18:23 436.500 FM
UOSAT-12 18 Apr 02:40:39 02:44:10 20° 50° (NE) 02:47:39 437.025 FM, 437.400 FM
Sapphire 18 Apr 02:47:05 02:50:55 19° 309° (NW) 02:54:46 437.095 MHz 1200 baud AX-25 AFSK
AO-27 18 Apr 02:49:59 02:54:49 39° 99° (E) 02:59:38 436.795 MHz FM
ITAMSAT 1 18 Apr 03:00:59 03:06:01 50° 100° (E) 03:11:01 435.822 SSB
Oscar 19 18 Apr 03:09:29 03:14:39 67° 285° (WNW) 03:19:48 437.125 CW, 437.150 USB
Oscar 16 18 Apr 03:17:35 03:22:37 51° 287° (WNW) 03:27:37 437.025 USB, Beacon 2401.1428
TMSAT-1 18 Apr 03:23:31 03:26:52 17° 93° (E) 03:30:11 436.925 FM
AO-Echo 18 Apr 03:24:35 03:29:22 70° 102° (ESE) 03:34:02 ?
OPAL 18 Apr 03:29:25 03:34:17 53° 258° (WSW) 03:39:14 ?
KITSAT 1 18 Apr 03:36:07 03:44:14 85° 116° (ESE) 03:52:24 435.175 FM
Uribyol 2 18 Apr 03:49:54 03:54:52 49° 288° (WNW) 03:59:50 436.500 FM
JAS-1B 18 Apr 04:10:36 04:14:57 22° 96° (E) 04:19:27 435.800 - 435.900 CW/SSB
Gurwin Techsat 1B 18 Apr 04:12:30 04:17:50 77° 103° (ESE) 04:23:07 435.225 FM
UOSAT-12 18 Apr 04:20:02 04:24:30 43° 246° (WSW) 04:28:54 437.025 FM, 437.400 FM
AO-27 18 Apr 04:30:12 04:34:02 22° 293° (WNW) 04:37:53 436.795 MHz FM
ITAMSAT 1 18 Apr 04:41:47 04:45:04 17° 295° (WNW) 04:48:21 435.822 SSB
AO-7 18 Apr 04:55:59 05:03:26 35° 99° (E) 05:10:49 29.400 - 29.500 MHz
TMSAT-1 18 Apr 05:01:55 05:07:01 50° 287° (WNW) 05:12:05 436.925 FM
AO-Echo 18 Apr 05:06:37 05:07:28 10° 297° (WNW) 05:08:19 ?
Uosat F 18 Apr 05:20:02 05:25:04 89° 104° (ESE) 05:30:03 435.120 FM
KITSAT 1 18 Apr 05:34:40 05:40:37 22° 316° (NW) 05:46:35 435.175 FM
Gurwin Techsat 1B 18 Apr 05:55:14 05:57:05 12° 298° (WNW) 05:58:55 435.225 FM
JAS-1B 18 Apr 06:00:34 06:05:46 38° 290° (WNW) 06:11:09 435.800 - 435.900 CW/SSB
STRAND 1 18 Apr 06:06:19 06:10:00 21° 66° (ENE) 06:13:42 ?
AO-7 18 Apr 06:48:27 06:56:14 46° 295° (WNW) 07:04:02 29.400 - 29.500 MHz
RS-15 18 Apr 06:49:54 07:00:46 52° 110° (ESE) 07:11:14 29.354 - 29.394 USB, Beacon 29.352 USB
JAS-2 18 Apr 07:27:02 07:31:31 25° 97° (E) 07:36:19 435.800 - 435.900 CW/SSB, 435.910 FM
Hamsat 18 Apr 07:27:45 07:32:07 87° 101° (ESE) 07:36:29 145.90 MHz
MaSat-1 18 Apr 07:43:31 07:46:22 35° 66° (ENE) 07:49:42 437.345 MHz
STRAND 1 18 Apr 07:44:04 07:48:52 41° 261° (W) 07:53:42 ?
SO-67 18 Apr 08:15:01 08:18:27 53° 100° (E) 08:21:52 435.3500 MHz FM
PANSAT 18 Apr 08:36:25 08:37:55 12° 159° (SSE) 08:39:25 not established
